Location: *
(47.8307°S, 178.3954°E)
Time: 23:10:58
(UTC+00:00)

TSX-5 - Pass Details

Date: 12 August 2024
Orbit: 397 x 1152 km, 68.9° (Epoch: 20 September)

Event Time Altitude Azimuth Distance (km) Brightness Sun altitude
Exits shadow 17:42:16 12° 319° (NW) 1,829 6.1 -15.7°
Maximum altitude 17:46:20 68° 236° (SW) 756 4.2 -15.0°
Drops below altitude 10° 17:51:53 10° 152° (SSE) 2,458 7.4 -14.0°
Sets 17:54:41 0° 149° (SSE) 3,533 8.3 -13.6°
